Location: Miles
(41.4492°N, 81.6087°W)
Time: 11:50:22
(UTC+00:00)

S-56A Canister/Altair - All Passes

Search period start: 07 September 2024 00:00
Search period end: 17 September 2024 00:00
Orbit: 636 x 2488 km, 38.9° (Epoch: 06 September)

Date Brightness Start Highest point End Pass type
(mag) Time Alt. Az. Time Alt. Az. Time Alt. Az.
07 Sep - 00:18:55 10° S 00:23:40 19° SE 00:29:42 10° E visible
07 Sep - 02:18:55 10° SW 02:26:30 56° SSE 02:37:57 10° E visible
07 Sep - 04:21:55 10° W 04:31:29 79° S 04:45:23 10° E visible
07 Sep - 06:26:00 10° W 06:37:27 68° SSW 06:52:14 10° ESE visible
07 Sep - 08:31:14 10° W 08:43:06 39° SW 08:56:18 10° SSE visible
07 Sep - 10:41:52 10° WSW 10:47:23 13° SW 10:52:57 10° SSW daylight
07 Sep - 23:46:32 10° SSE 23:50:02 15° SE 23:54:11 10° E daylight
08 Sep - 01:45:31 10° SW 01:52:30 50° SSE 02:03:00 10° E visible
08 Sep - 03:48:12 10° W 03:57:06 78° S 04:10:23 10° E visible
08 Sep - 05:52:02 10° W 06:02:52 70° SSW 06:17:27 10° ESE visible
08 Sep - 07:56:54 10° W 08:08:34 43° SSW 08:22:07 10° SSE visible
08 Sep - 10:05:47 10° W 10:13:06 16° SW 10:20:39 10° SSW visible
08 Sep - 23:15:32 10° SE 23:16:26 10° SE 23:17:22 10° ESE daylight
09 Sep - 01:12:11 10° SW 01:18:36 44° SSE 01:28:05 10° E visible
09 Sep - 03:14:32 10° WSW 03:22:48 76° S 03:35:23 10° E visible
09 Sep - 05:18:09 10° W 05:28:20 72° SSW 05:42:36 10° ESE visible
09 Sep - 07:22:41 10° W 07:34:00 46° SSW 07:47:48 10° SE visible
09 Sep - 09:30:21 10° W 09:38:47 19° SW 09:47:42 10° S visible
10 Sep - 00:38:55 10° SSW 00:44:46 37° SE 00:53:12 10° E visible
10 Sep - 02:40:55 10° WSW 02:48:36 73° SSE 03:00:25 10° E visible
10 Sep - 04:44:20 10° W 04:53:52 74° S 05:07:41 10° ESE visible
10 Sep - 06:48:33 10° W 06:59:28 49° SSW 07:13:21 10° SE visible
10 Sep - 08:55:20 10° W 09:04:25 22° SW 09:14:20 10° S visible
11 Sep - 00:05:45 10° SSW 00:11:02 31° SE 00:18:21 10° E visible
11 Sep - 02:07:21 10° WSW 02:14:28 69° SSE 02:25:29 10° E visible
11 Sep - 04:10:34 10° W 04:19:29 76° S 04:32:44 10° ESE visible
11 Sep - 06:14:32 10° W 06:24:58 52° SSW 06:38:47 10° SE visible
11 Sep - 08:20:35 10° W 08:30:01 24° SW 08:40:42 10° S visible
11 Sep - 23:32:42 10° SSW 23:37:21 25° SE 23:43:30 10° E daylight
12 Sep - 01:33:51 10° WSW 01:40:26 65° SSE 01:50:36 10° E visible
12 Sep - 03:36:52 10° W 03:45:10 77° S 03:57:46 10° ESE visible
12 Sep - 05:40:36 10° W 05:50:30 55° SSW 06:04:07 10° SE visible
12 Sep - 07:46:04 10° W 07:55:36 27° SW 08:06:49 10° S visible
12 Sep - 22:59:48 10° S 23:03:43 20° SE 23:08:36 10° E daylight
13 Sep - 01:00:24 10° WSW 01:06:30 59° SSE 01:15:46 10° E visible
13 Sep - 03:03:13 10° W 03:10:55 77° S 03:22:48 10° E visible
13 Sep - 05:06:45 10° W 05:16:05 58° SSW 05:29:22 10° SE visible
13 Sep - 07:11:42 10° W 07:21:12 30° SW 07:32:46 10° SSE visible
13 Sep - 22:27:10 10° S 22:30:07 15° SE 22:33:34 10° ESE daylight
14 Sep - 00:26:58 10° SW 00:32:38 53° SSE 00:41:01 10° E visible
14 Sep - 02:29:36 10° W 02:36:45 77° S 02:47:51 10° E visible
14 Sep - 04:32:58 10° W 04:41:43 61° SSW 04:54:33 10° ESE visible
14 Sep - 06:37:30 10° W 06:46:48 32° SW 06:58:34 10° SSE night (unlit)
14 Sep - 21:55:18 10° SSE 21:56:32 11° SE 21:57:51 10° ESE daylight
14 Sep - 23:53:36 10° SW 23:58:50 46° SSE 00:06:22 10° E visible
15 Sep - 01:56:01 10° W 02:02:40 76° S 02:12:58 10° E visible
15 Sep - 03:59:14 10° W 04:07:26 63° SSW 04:19:43 10° ESE visible
15 Sep - 06:03:25 10° W 06:12:25 35° SSW 06:24:14 10° SSE night (unlit)
15 Sep - 08:13:23 10° WSW 08:17:00 12° SW 08:20:49 10° SSW night (unlit)
15 Sep - 23:20:16 10° SW 23:25:06 39° SSE 23:31:45 10° E daylight
16 Sep - 01:22:28 10° WSW 01:28:39 74° S 01:38:09 10° E visible
16 Sep - 03:25:33 10° W 03:33:12 65° SSW 03:44:51 10° ESE visible
16 Sep - 05:29:27 10° W 05:38:04 37° SSW 05:49:47 10° SSE visible
16 Sep - 07:37:34 10° WSW 07:42:42 14° SW 07:48:23 10° SSW night (unlit)
16 Sep - 22:47:00 10° SSW 22:51:25 32° SSE 22:57:13 10° E daylight
